DateTimeUTC,F1_A11,F1_S11,BsB_S11,BsG_S11,BsR_S11,BbsB_S11,BbsG_S11,BbsR_S11,BaB_A11,BaG_A11,BaR_A11,Tu_S11,T_S11,Uu_S11,U_S11,P_S11,T1_A11
2021-06-15T22:00:00Z,00000200,20000000,,,,,,,-000.05,0000.02,0000.09,18.5,25.3,02.6,01.7,0670.2,31.0
2021-06-15T22:01:00Z,00000200,20000000,,,,,,,0000.50,0000.35,0000.05,18.5,25.3,02.3,01.5,0670.2,31.0
2021-06-15T22:02:00Z,00000200,20000000,,,,,,,-000.14,0000.25,-000.35,18.4,25.3,02.3,01.5,0670.2,31.1
2021-06-15T22:03:00Z,00000200,60000000,,,,,,,0017.52,0015.24,0011.98,18.4,25.3,02.3,01.5,0670.2,31.0
2021-06-15T22:04:00Z,00000200,40000000,0000.97,0000.66,0000.71,0000.70,0000.34,0000.03,0016.54,0014.81,0010.85,18.4,25.1,02.6,01.7,0671.1,31.0
2021-06-15T22:05:00Z,00000200,00000000,0001.95,0000.91,0000.46,0000.81,0000.02,0000.22,0016.09,0014.64,0011.39,18.5,25.1,02.5,01.7,0671.2,31.1
2021-06-15T22:06:00Z,00000200,00000000,0001.01,0000.91,0000.29,0000.85,0000.43,-000.02,0014.14,0012.39,0008.87,18.5,25.1,02.5,01.7,0671.2,31.1
2021-06-15T22:07:00Z,00000200,00000000,0001.45,0000.51,0000.54,0000.89,0000.25,0000.07,0012.00,0010.58,0007.92,18.6,25.1,02.5,01.7,0671.2,31.0
2021-06-15T22:08:00Z,00000200,00000000,0001.02,0000.74,0000.65,0000.50,0000.23,0000.11,0009.08,0008.06,0005.97,18.6,25.1,02.6,01.7,0671.2,31.1
2021-06-15T22:09:00Z,00000200,00000000,0000.89,0000.39,0000.37,0000.39,-000.03,-000.09,0002.36,0002.15,0001.59,18.6,25.1,02.6,01.8,0671.1,31.0
2021-06-15T22:10:00Z,00000200,00000000,0000.95,0000.43,0000.33,-000.20,0000.07,-000.34,0000.64,0000.89,0001.01,18.6,25.0,02.6,01.8,0671.1,31.0
2021-06-15T22:11:00Z,00000200,00000000,0001.23,0000.61,0000.46,0000.42,0000.08,-000.01,0000.47,0000.04,-000.13,18.6,25.0,02.7,01.8,0671.1,31.0
2021-06-15T22:12:00Z,00000200,00000000,0001.08,0000.70,0000.14,0000.32,0000.25,0000.12,0000.51,0000.60,0000.40,18.5,25.0,02.7,01.8,0671.1,31.0
2021-06-15T22:13:00Z,00000200,00000000,0000.61,0000.56,0000.29,0000.24,0000.07,-000.08,0000.48,0000.95,0000.54,18.5,25.0,02.7,01.8,0671.1,31.0
2021-06-15T22:14:00Z,00000200,00000000,0000.83,0000.41,0000.50,0000.04,0000.30,0000.40,0000.77,-000.07,0000.19,18.5,25.0,02.6,01.8,0671.1,31.0
2021-06-15T22:15:00Z,00000200,00000000,0001.10,0000.68,0000.25,0000.56,0000.19,0000.32,0000.39,0000.93,0000.58,18.5,25.0,02.7,01.8,0671.2,31.0
2021-06-15T22:16:00Z,00000200,00000000,0000.64,0000.60,0000.18,0000.39,0000.04,-000.02,0001.16,0000.91,0000.85,18.4,25.0,02.7,01.8,0671.2,31.0
2021-06-15T22:17:00Z,00000200,00000000,0000.65,0000.37,0000.58,-000.21,0000.06,0000.08,0001.37,0001.04,0000.69,18.4,25.0,02.7,01.8,0671.1,31.0
2021-06-15T22:18:00Z,00000200,00010000,0000.85,0000.64,0000.30,0000.23,0000.16,0000.27,0002.52,0002.32,0001.52,18.4,24.9,02.6,01.8,0671.2,31.0
2021-06-15T22:19:00Z,00000200,00000000,0000.86,0000.37,0000.44,0000.44,0000.05,0000.35,0002.26,0001.92,0001.77,18.4,24.9,02.7,01.8,0671.2,31.0
2021-06-15T22:20:00Z,00000200,00000000,0000.59,0000.60,0000.15,0000.29,0000.23,0000.38,0001.04,0001.13,0000.60,18.4,24.9,02.6,01.8,0671.2,31.1
2021-06-15T22:21:00Z,00000200,00000000,0000.84,0000.29,0000.04,0000.14,0000.30,0000.12,0000.43,0000.58,0000.50,18.5,24.9,02.5,01.7,0671.2,31.1
2021-06-15T22:22:00Z,00000200,00000000,0000.92,0000.53,0000.32,0000.05,0000.03,0000.10,0000.57,0000.03,0000.48,18.5,25.0,02.6,01.7,0671.1,31.1
2021-06-15T22:23:00Z,00000200,00000000,0000.56,0000.59,0000.19,0000.32,0000.25,0000.06,0000.11,0000.41,-000.13,18.6,25.1,02.6,01.8,0671.1,31.1
2021-06-15T22:24:00Z,00000200,00000000,0000.61,0000.25,0000.38,0000.62,0000.17,-000.01,0000.05,-000.11,0000.13,18.6,25.1,02.7,01.8,0671.1,31.1
2021-06-15T22:25:00Z,00000200,00000000,0001.06,0000.64,0000.26,0000.16,-000.11,0000.19,0000.16,0000.05,0000.17,18.7,25.1,02.6,01.8,0671.2,31.1
2021-06-15T22:26:00Z,00000200,00000000,0001.55,0000.92,0000.48,0000.06,-000.10,0000.50,0000.77,0000.95,0000.24,18.6,25.1,02.6,01.7,0671.2,31.1
2021-06-15T22:27:00Z,00000200,00000000,0000.24,0000.57,0000.31,-000.38,0000.26,0000.20,-000.11,0000.16,0000.04,18.6,25.0,02.6,01.7,0671.2,31.1
2021-06-15T22:28:00Z,00000200,00000000,0000.70,0000.44,0000.32,0000.03,0000.25,0000.14,0000.19,0000.37,0000.36,18.6,25.0,02.5,01.7,0671.2,31.1
2021-06-15T22:29:00Z,00000200,00000000,0000.44,0000.51,0000.26,0000.60,0000.10,0000.29,0000.50,-000.23,-000.07,18.6,25.0,02.5,01.7,0671.2,31.1
2021-06-15T22:30:00Z,00000200,00000000,0000.53,0000.63,0000.34,0000.69,0000.18,-000.09,-000.04,0000.23,0000.19,18.5,25.0,02.5,01.7,0671.2,31.0
2021-06-15T22:31:00Z,00000200,00000000,0001.06,0000.64,0000.28,0000.67,0000.36,0000.02,0000.52,0000.12,0000.12,18.5,25.0,02.4,01.6,0671.2,31.0
2021-06-15T22:32:00Z,00000200,00000000,0000.79,0000.63,0000.35,0000.60,0000.00,0000.19,-000.05,0000.16,-000.06,18.5,24.9,02.5,01.7,0671.2,31.0
2021-06-15T22:33:00Z,00000200,00000000,0001.61,0000.42,0000.10,0000.54,0000.11,0000.24,0000.36,0000.18,0000.76,18.5,24.9,02.5,01.7,0671.2,31.0
2021-06-15T22:34:00Z,00000200,00000000,0001.10,0000.22,0000.15,0000.34,-000.17,0000.23,0000.48,0000.99,0000.40,18.5,24.9,02.5,01.7,0671.2,31.0
2021-06-15T22:35:00Z,00000200,00000000,0001.12,0000.55,0000.37,0000.60,-000.11,0000.12,0000.36,-000.06,0000.02,18.5,24.9,02.5,01.7,0671.2,31.0
2021-06-15T22:36:00Z,00000200,00000000,0000.76,0000.41,0000.47,0000.25,0000.13,0000.29,0000.22,0000.46,-000.02,18.5,24.9,02.4,01.6,0671.2,31.1
2021-06-15T22:37:00Z,00000200,00000000,0001.26,0000.26,0000.31,0000.20,0000.41,0000.36,-000.06,-000.20,0000.27,18.6,25.0,02.5,01.7,0671.2,31.1
2021-06-15T22:38:00Z,00000200,00000000,0001.04,0000.32,0000.47,0000.24,-000.00,0000.49,0000.54,0000.35,-000.11,18.6,25.0,02.4,01.6,0671.2,31.1
2021-06-15T22:39:00Z,00000200,00000000,0001.23,0000.75,0000.52,0000.23,0000.20,0000.10,0000.06,0000.08,0000.28,18.7,25.1,02.4,01.6,0671.2,31.1
2021-06-15T22:40:00Z,00000200,00000000,0001.36,0000.04,0000.42,-000.05,0000.18,0000.12,0001.30,0000.96,0000.50,18.7,25.0,02.5,01.7,0671.2,31.1
2021-06-15T22:41:00Z,00000200,00000000,0001.50,0000.73,0000.07,0000.49,0000.02,0000.24,0002.22,0001.90,0001.72,18.6,25.0,02.4,01.6,0671.2,31.1
2021-06-15T22:42:00Z,00000200,00000000,0000.57,0000.48,0000.45,0000.10,0000.24,0000.45,0001.39,0001.72,0001.17,18.6,25.0,02.4,01.6,0671.2,31.1
2021-06-15T22:43:00Z,00000200,00000000,0000.80,0000.41,0000.36,0000.19,0000.12,0000.22,0001.13,0000.36,0000.21,18.5,25.0,02.4,01.6,0671.2,31.1
2021-06-15T22:44:00Z,00000200,00000000,0000.30,0000.65,0000.25,0000.55,0000.09,0000.02,0000.63,0000.68,0000.79,18.5,25.0,02.5,01.7,0671.2,31.0
2021-06-15T22:45:00Z,00000200,00000000,0001.07,0000.46,0000.50,0000.29,0000.12,0000.19,-000.12,0000.21,0000.12,18.5,24.9,02.6,01.7,0671.2,31.0
2021-06-15T22:46:00Z,00000200,00000000,0000.64,0000.42,0000.23,0000.21,0000.20,-000.00,0000.27,0000.21,-000.09,18.5,24.9,02.6,01.7,0671.2,31.0
2021-06-15T22:47:00Z,00000200,00000000,0001.35,0000.49,0000.38,0000.13,0000.13,0000.04,0000.38,-000.00,0000.25,18.4,24.9,02.6,01.8,0671.2,31.0
2021-06-15T22:48:00Z,00000200,00000000,0001.81,0000.62,0000.29,0000.07,-000.02,0000.04,0000.39,0000.66,0000.25,18.4,24.9,02.6,01.8,0671.2,31.0
2021-06-15T22:49:00Z,00000200,00000000,0000.77,0000.60,0000.20,0000.44,0000.24,-000.07,0000.04,-000.03,0000.33,18.4,24.9,02.6,01.7,0671.2,31.0
2021-06-15T22:50:00Z,00000200,00000000,0001.41,0000.44,0000.22,0000.33,0000.17,0000.24,-000.10,0000.50,-000.09,18.4,24.9,02.6,01.8,0671.2,31.0
2021-06-15T22:51:00Z,00000200,00000000,0001.27,0000.69,0000.40,0000.06,0000.06,0000.18,0000.53,0000.02,0000.27,18.4,24.9,02.6,01.7,0671.2,31.1
2021-06-15T22:52:00Z,00000200,00000000,0000.61,0000.42,0000.24,0000.25,-000.16,-000.08,0000.20,0000.58,0000.07,18.5,25.0,02.5,01.7,0671.2,31.1
2021-06-15T22:53:00Z,00000200,00000000,0001.08,0000.68,0000.18,-000.27,0000.20,-000.26,0000.25,-000.18,0000.19,18.6,25.0,02.5,01.7,0671.2,31.1
2021-06-15T22:54:00Z,00000200,00000000,0001.27,0000.48,0000.23,0000.34,0000.08,0000.31,0000.01,0000.22,-000.15,18.6,25.0,02.4,01.7,0671.2,31.1
2021-06-15T22:55:00Z,00000200,00000000,0000.59,0000.54,0000.33,0000.51,0000.13,0000.20,0000.24,0000.07,0000.18,18.6,25.0,02.4,01.6,0671.2,31.1
2021-06-15T22:56:00Z,00000200,00000000,0000.69,0000.56,0000.18,0000.03,-000.14,-000.04,-000.18,-000.16,-000.18,18.6,25.0,02.5,01.7,0671.2,31.1
2021-06-15T22:57:00Z,00000200,40000000,,,,,,,0000.83,0000.35,0000.62,18.6,25.0,02.5,01.7,0671.3,31.1
2021-06-15T22:58:00Z,00000200,60000000,,,,,,,-000.56,0000.20,0000.04,18.4,25.1,02.3,01.5,0670.2,31.0
2021-06-15T22:59:00Z,00000200,20000000,,,,,,,0000.07,-000.30,-000.02,18.4,25.2,02.3,01.5,0670.2,31.0
